Year,Month,Day,Hour,Minute,Value (Times are PST for temperature in C)
2018,01,18,00,00,7.80
2018,01,18,00,01,7.60
2018,01,18,00,02,7.50
2018,01,18,00,03,7.40
2018,01,18,00,04,7.30
2018,01,18,00,05,7.20
2018,01,18,00,06,7.20
2018,01,18,00,07,7.20
2018,01,18,00,08,7.20
2018,01,18,00,09,7.20
2018,01,18,00,10,7.20
2018,01,18,00,11,7.10
2018,01,18,00,12,7.10
2018,01,18,00,13,7.10
2018,01,18,00,14,7.10
2018,01,18,00,15,7.20
2018,01,18,00,16,7.20
2018,01,18,00,17,7.20
2018,01,18,00,18,7.20
2018,01,18,00,19,7.20
2018,01,18,00,20,7.20
2018,01,18,00,21,7.20
2018,01,18,00,22,7.20
2018,01,18,00,23,7.20
2018,01,18,00,24,7.20
2018,01,18,00,25,7.30
2018,01,18,00,26,7.30
2018,01,18,00,27,7.30
2018,01,18,00,28,7.30
2018,01,18,00,29,7.30
2018,01,18,00,30,7.30
2018,01,18,00,31,7.40
2018,01,18,00,32,7.40
2018,01,18,00,33,7.40
2018,01,18,00,34,7.40
2018,01,18,00,35,7.50
2018,01,18,00,36,7.70
2018,01,18,00,37,7.80
2018,01,18,00,38,7.80
2018,01,18,00,39,7.80
2018,01,18,00,40,7.90
2018,01,18,00,41,7.90
2018,01,18,00,42,7.90
2018,01,18,00,43,7.90
2018,01,18,00,44,7.90
2018,01,18,00,45,7.90
2018,01,18,00,46,7.90
2018,01,18,00,47,7.90
2018,01,18,00,48,7.90
2018,01,18,00,49,7.90
2018,01,18,00,50,7.90
2018,01,18,00,51,8.10
2018,01,18,00,52,8.30
2018,01,18,00,53,8.50
2018,01,18,00,54,8.70
2018,01,18,00,55,8.80
2018,01,18,00,56,9.00
2018,01,18,00,57,9.20
2018,01,18,00,58,9.30
2018,01,18,00,59,9.30
2018,01,18,01,00,9.40
2018,01,18,01,01,9.50
2018,01,18,01,02,9.60
2018,01,18,01,03,9.70
2018,01,18,01,04,9.80
2018,01,18,01,05,9.90
2018,01,18,01,06,9.90
2018,01,18,01,07,9.90
2018,01,18,01,08,9.90
2018,01,18,01,09,9.80
2018,01,18,01,10,9.80
2018,01,18,01,11,9.80
2018,01,18,01,12,9.80
2018,01,18,01,13,9.80
2018,01,18,01,14,9.80
2018,01,18,01,15,9.80
2018,01,18,01,16,9.90
2018,01,18,01,17,9.90
2018,01,18,01,18,10.00
2018,01,18,01,19,10.00
2018,01,18,01,20,10.10
2018,01,18,01,21,10.10
2018,01,18,01,22,10.10
2018,01,18,01,23,10.20
2018,01,18,01,24,10.20
2018,01,18,01,25,10.20
2018,01,18,01,26,10.20
2018,01,18,01,27,10.10
2018,01,18,01,28,10.10
2018,01,18,01,29,10.10
2018,01,18,01,30,10.20
2018,01,18,01,31,10.30
2018,01,18,01,32,10.30
2018,01,18,01,33,10.30
2018,01,18,01,34,10.30
2018,01,18,01,35,10.30
2018,01,18,01,36,10.30
2018,01,18,01,37,10.20
2018,01,18,01,38,10.30
2018,01,18,01,39,10.30
2018,01,18,01,40,10.30
2018,01,18,01,41,10.20
2018,01,18,01,42,10.20
2018,01,18,01,43,10.20
2018,01,18,01,44,10.20
2018,01,18,01,45,10.20
2018,01,18,01,46,10.10
2018,01,18,01,47,10.10
2018,01,18,01,48,10.10
2018,01,18,01,49,10.10
2018,01,18,01,50,10.10
2018,01,18,01,51,10.10
2018,01,18,01,52,10.10
2018,01,18,01,53,10.20
2018,01,18,01,54,10.20
2018,01,18,01,55,10.10
2018,01,18,01,56,10.10
2018,01,18,01,57,10.10
2018,01,18,01,58,10.20
2018,01,18,01,59,10.30
2018,01,18,02,00,10.30
2018,01,18,02,01,10.40
2018,01,18,02,02,10.40
2018,01,18,02,03,10.30
2018,01,18,02,04,10.30
2018,01,18,02,05,10.30
2018,01,18,02,06,10.20
2018,01,18,02,07,10.30
2018,01,18,02,08,10.30
2018,01,18,02,09,10.30
2018,01,18,02,10,10.20
2018,01,18,02,11,10.20
2018,01,18,02,12,10.20
2018,01,18,02,13,10.20
2018,01,18,02,14,10.20
2018,01,18,02,15,10.20
2018,01,18,02,16,10.20
2018,01,18,02,17,10.30
2018,01,18,02,18,10.30
2018,01,18,02,19,10.30
2018,01,18,02,20,10.30
2018,01,18,02,21,10.20
2018,01,18,02,22,10.20
2018,01,18,02,23,10.20
2018,01,18,02,24,10.20
2018,01,18,02,25,10.30
2018,01,18,02,26,10.20
2018,01,18,02,27,10.30
2018,01,18,02,28,10.30
2018,01,18,02,29,10.30
2018,01,18,02,30,10.30
2018,01,18,02,31,10.30
2018,01,18,02,32,10.30
2018,01,18,02,33,10.20
2018,01,18,02,34,10.20
2018,01,18,02,35,10.20
2018,01,18,02,36,10.20
2018,01,18,02,37,10.10
2018,01,18,02,38,10.10
2018,01,18,02,39,10.20
2018,01,18,02,40,10.20
2018,01,18,02,41,10.20
2018,01,18,02,42,10.30
2018,01,18,02,43,10.30
2018,01,18,02,44,10.20
2018,01,18,02,45,10.20
2018,01,18,02,46,10.20
2018,01,18,02,47,10.20
2018,01,18,02,48,10.20
2018,01,18,02,49,10.20
2018,01,18,02,50,10.20
2018,01,18,02,51,10.10
2018,01,18,02,52,10.10
2018,01,18,02,53,10.10
2018,01,18,02,54,10.10
2018,01,18,02,55,10.10
2018,01,18,02,56,10.10
2018,01,18,02,57,10.10
2018,01,18,02,58,10.10
2018,01,18,02,59,10.10
2018,01,18,03,00,10.10
2018,01,18,03,01,10.10
2018,01,18,03,02,10.20
2018,01,18,03,03,10.20
2018,01,18,03,04,10.20
2018,01,18,03,05,10.20
2018,01,18,03,06,10.20
2018,01,18,03,07,10.20
2018,01,18,03,08,10.20
2018,01,18,03,09,10.20
2018,01,18,03,10,10.20
2018,01,18,03,11,10.20
2018,01,18,03,12,10.20
2018,01,18,03,13,10.20
2018,01,18,03,14,10.20
2018,01,18,03,15,10.20
2018,01,18,03,16,10.20
2018,01,18,03,17,10.30
2018,01,18,03,18,10.30
2018,01,18,03,19,10.30
2018,01,18,03,20,10.40
2018,01,18,03,21,10.40
2018,01,18,03,22,10.40
2018,01,18,03,23,10.50
2018,01,18,03,24,10.50
2018,01,18,03,25,10.50
2018,01,18,03,26,10.50
2018,01,18,03,27,10.60
2018,01,18,03,28,10.60
2018,01,18,03,29,10.60
2018,01,18,03,30,10.60
2018,01,18,03,31,10.50
2018,01,18,03,32,10.40
2018,01,18,03,33,10.40
2018,01,18,03,34,10.40
2018,01,18,03,35,10.40
2018,01,18,03,36,10.40
2018,01,18,03,37,10.40
2018,01,18,03,38,10.40
2018,01,18,03,39,10.40
2018,01,18,03,40,10.40
2018,01,18,03,41,10.40
2018,01,18,03,42,10.40
2018,01,18,03,43,10.50
2018,01,18,03,44,10.50
2018,01,18,03,45,10.40
2018,01,18,03,46,10.40
2018,01,18,03,47,10.30
2018,01,18,03,48,10.30
2018,01,18,03,49,10.20
2018,01,18,03,50,10.20
2018,01,18,03,51,10.20
2018,01,18,03,52,10.10
2018,01,18,03,53,10.00
2018,01,18,03,54,9.90
2018,01,18,03,55,9.90
2018,01,18,03,56,9.90
2018,01,18,03,57,9.90
2018,01,18,03,58,9.90
2018,01,18,03,59,9.80
2018,01,18,04,00,9.80
2018,01,18,04,01,9.80
2018,01,18,04,02,9.90
2018,01,18,04,03,10.00
2018,01,18,04,04,10.00
2018,01,18,04,05,10.00
2018,01,18,04,06,10.00
2018,01,18,04,07,10.00
2018,01,18,04,08,9.90
2018,01,18,04,09,9.80
2018,01,18,04,10,9.60
2018,01,18,04,11,9.60
2018,01,18,04,12,9.40
2018,01,18,04,13,9.30
2018,01,18,04,14,9.30
2018,01,18,04,15,9.20
2018,01,18,04,16,9.10
2018,01,18,04,17,8.90
2018,01,18,04,18,8.90
2018,01,18,04,19,8.80
2018,01,18,04,20,8.90
2018,01,18,04,21,8.90
2018,01,18,04,22,8.90
2018,01,18,04,23,8.90
2018,01,18,04,24,8.90
2018,01,18,04,25,8.90
2018,01,18,04,26,9.00
2018,01,18,04,27,9.00
2018,01,18,04,28,9.10
2018,01,18,04,29,9.10
2018,01,18,04,30,9.10
2018,01,18,04,31,9.20
2018,01,18,04,32,9.20
2018,01,18,04,33,9.20
2018,01,18,04,34,9.10
2018,01,18,04,35,9.10
2018,01,18,04,36,9.10
2018,01,18,04,37,9.00
2018,01,18,04,38,9.00
2018,01,18,04,39,9.00
2018,01,18,04,40,8.90
2018,01,18,04,41,9.00
2018,01,18,04,42,9.00
2018,01,18,04,43,9.00
2018,01,18,04,44,9.00
2018,01,18,04,45,9.00
2018,01,18,04,46,9.00
2018,01,18,04,47,8.90
2018,01,18,04,48,8.80
2018,01,18,04,49,8.70
2018,01,18,04,50,8.60
2018,01,18,04,51,8.50
2018,01,18,04,52,8.40
2018,01,18,04,53,8.40
2018,01,18,04,54,8.40
2018,01,18,04,55,8.30
2018,01,18,04,56,8.30
2018,01,18,04,57,8.30
2018,01,18,04,58,8.30
2018,01,18,04,59,8.30
2018,01,18,05,00,8.30
2018,01,18,05,01,8.30
2018,01,18,05,02,8.30
2018,01,18,05,03,8.30
2018,01,18,05,04,8.30
2018,01,18,05,05,8.30
2018,01,18,05,06,8.40
2018,01,18,05,07,8.40
2018,01,18,05,08,8.40
2018,01,18,05,09,8.40
2018,01,18,05,10,8.50
2018,01,18,05,11,8.50
2018,01,18,05,12,8.40
2018,01,18,05,13,8.50
2018,01,18,05,14,8.50
2018,01,18,05,15,8.50
2018,01,18,05,16,8.50
2018,01,18,05,17,8.50
2018,01,18,05,18,8.60
2018,01,18,05,19,8.70
2018,01,18,05,20,8.80
2018,01,18,05,21,8.80
2018,01,18,05,22,8.80
2018,01,18,05,23,8.80
2018,01,18,05,24,8.80
2018,01,18,05,25,8.80
2018,01,18,05,26,8.80
2018,01,18,05,27,8.80
2018,01,18,05,28,8.90
2018,01,18,05,29,8.90
2018,01,18,05,30,8.90
2018,01,18,05,31,8.90
2018,01,18,05,32,8.90
2018,01,18,05,33,8.90
2018,01,18,05,34,8.90
2018,01,18,05,35,8.90
2018,01,18,05,36,8.90
2018,01,18,05,37,8.90
2018,01,18,05,38,9.00
2018,01,18,05,39,9.10
2018,01,18,05,40,9.10
2018,01,18,05,41,9.10
2018,01,18,05,42,9.10
2018,01,18,05,43,9.10
2018,01,18,05,44,9.00
2018,01,18,05,45,9.00
2018,01,18,05,46,9.00
2018,01,18,05,47,9.00
2018,01,18,05,48,9.00
2018,01,18,05,49,9.00
2018,01,18,05,50,9.00
2018,01,18,05,51,9.00
2018,01,18,05,52,9.10
2018,01,18,05,53,9.10
2018,01,18,05,54,9.10
2018,01,18,05,55,9.10
2018,01,18,05,56,9.10
2018,01,18,05,57,9.10
2018,01,18,05,58,9.00
2018,01,18,05,59,9.00
2018,01,18,06,00,9.00
2018,01,18,06,01,9.00
2018,01,18,06,02,9.10
2018,01,18,06,03,9.20
2018,01,18,06,04,9.20
2018,01,18,06,05,9.20
2018,01,18,06,06,9.30
2018,01,18,06,07,9.30
2018,01,18,06,08,9.30
2018,01,18,06,09,9.30
2018,01,18,06,10,9.30
2018,01,18,06,11,9.30
2018,01,18,06,12,9.40
2018,01,18,06,13,9.40
2018,01,18,06,14,9.40
2018,01,18,06,15,9.40
2018,01,18,06,16,9.40
2018,01,18,06,17,9.40
2018,01,18,06,18,9.40
2018,01,18,06,19,9.40
2018,01,18,06,20,9.40
2018,01,18,06,21,9.30
2018,01,18,06,22,9.30
2018,01,18,06,23,9.30
2018,01,18,06,24,9.30
2018,01,18,06,25,9.30
2018,01,18,06,26,9.30
2018,01,18,06,27,9.30
2018,01,18,06,28,9.30
2018,01,18,06,29,9.40
2018,01,18,06,30,9.40
2018,01,18,06,31,9.50
2018,01,18,06,32,9.50
2018,01,18,06,33,9.50
2018,01,18,06,34,9.50
2018,01,18,06,35,9.50
2018,01,18,06,36,9.50
2018,01,18,06,37,9.60
2018,01,18,06,38,9.60
2018,01,18,06,39,9.50
2018,01,18,06,40,9.40
2018,01,18,06,41,9.30
2018,01,18,06,42,9.20
2018,01,18,06,43,9.00
2018,01,18,06,44,8.80
2018,01,18,06,45,8.70
2018,01,18,06,46,8.70
2018,01,18,06,47,8.70
2018,01,18,06,48,8.70
2018,01,18,06,49,8.70
2018,01,18,12,17,7.30
2018,01,18,12,18,7.30
2018,01,18,12,19,7.30
2018,01,18,12,20,7.30
2018,01,18,12,21,7.30
2018,01,18,12,22,7.30
2018,01,18,12,23,7.30
2018,01,18,12,24,7.30
2018,01,18,12,25,7.30
2018,01,18,12,26,7.40
2018,01,18,12,27,7.40
2018,01,18,12,28,7.40
2018,01,18,12,29,7.50
2018,01,18,12,30,7.50
2018,01,18,12,31,7.50
2018,01,18,12,32,7.50
2018,01,18,12,33,7.40
2018,01,18,12,34,7.50
2018,01,18,12,35,7.50
2018,01,18,12,36,7.60
2018,01,18,12,37,7.70
2018,01,18,12,38,7.90
2018,01,18,12,39,7.90
2018,01,18,12,40,7.90
2018,01,18,12,41,7.90
2018,01,18,12,42,8.00
2018,01,18,12,43,8.10
2018,01,18,12,44,8.20
2018,01,18,12,45,8.30
2018,01,18,12,46,8.40
2018,01,18,12,47,8.40
2018,01,18,12,48,8.40
2018,01,18,12,49,8.50
2018,01,18,12,50,8.50
2018,01,18,12,51,8.60
2018,01,18,12,52,8.60
2018,01,18,12,53,8.60
2018,01,18,12,54,8.60
2018,01,18,12,55,8.60
2018,01,18,12,56,8.70
2018,01,18,12,57,8.70
2018,01,18,12,58,8.70
2018,01,18,12,59,8.80
2018,01,18,13,00,8.80
2018,01,18,13,01,8.80
2018,01,18,13,02,8.80
2018,01,18,13,03,8.80
2018,01,18,13,04,8.90
2018,01,18,13,05,8.90
2018,01,18,13,06,8.90
2018,01,18,13,07,9.00
2018,01,18,13,08,9.00
2018,01,18,13,09,9.10
2018,01,18,13,10,9.10
2018,01,18,13,11,9.20
2018,01,18,13,12,9.10
2018,01,18,13,13,9.00
2018,01,18,13,14,8.90
2018,01,18,13,15,8.80
2018,01,18,13,16,8.60
2018,01,18,13,17,8.50
2018,01,18,13,18,8.40
2018,01,18,13,19,8.30
2018,01,18,13,20,8.10
2018,01,18,13,21,7.80
2018,01,18,13,22,7.60
2018,01,18,13,23,7.40
2018,01,18,13,24,7.10
2018,01,18,13,25,6.90
2018,01,18,13,26,6.60
2018,01,18,13,27,6.50
2018,01,18,13,28,6.40
2018,01,18,13,29,6.30
2018,01,18,13,30,6.20
2018,01,18,13,31,6.10
2018,01,18,13,32,6.10
2018,01,18,13,33,6.00
2018,01,18,13,34,5.90
2018,01,18,13,35,5.90
2018,01,18,13,36,5.80
2018,01,18,13,37,5.70
2018,01,18,13,38,5.70
2018,01,18,13,39,5.60
2018,01,18,13,40,5.50
2018,01,18,13,41,5.50
2018,01,18,13,42,5.50
2018,01,18,13,43,5.50
2018,01,18,13,44,5.50
2018,01,18,13,45,5.50
2018,01,18,13,46,5.60
2018,01,18,13,47,5.60
2018,01,18,13,48,5.60
2018,01,18,13,49,5.60
2018,01,18,13,50,5.70
2018,01,18,13,51,5.70
2018,01,18,13,52,5.70
2018,01,18,13,53,5.70
2018,01,18,13,54,5.70
2018,01,18,13,55,5.70
2018,01,18,13,56,5.70
2018,01,18,13,57,5.70
2018,01,18,13,58,5.70
2018,01,18,13,59,5.70
2018,01,18,14,00,5.70
2018,01,18,14,01,5.70
2018,01,18,14,02,5.70
2018,01,18,14,03,5.60
2018,01,18,14,04,5.60
2018,01,18,14,05,5.60
2018,01,18,14,06,5.60
2018,01,18,14,07,5.60
2018,01,18,14,08,5.60
2018,01,18,14,09,5.60
2018,01,18,14,10,5.60
2018,01,18,14,11,5.60
2018,01,18,14,12,5.60
2018,01,18,14,13,5.60
2018,01,18,14,14,5.60
2018,01,18,14,15,5.70
2018,01,18,14,16,5.70
2018,01,18,14,17,5.70
2018,01,18,14,18,5.70
2018,01,18,14,19,5.70
2018,01,18,14,20,5.70
2018,01,18,14,21,5.70
2018,01,18,14,22,5.70
2018,01,18,14,23,5.70
2018,01,18,14,24,5.70
2018,01,18,14,25,5.70
2018,01,18,14,26,5.70
2018,01,18,14,27,5.70
2018,01,18,14,28,5.70
2018,01,18,14,29,5.70
2018,01,18,14,30,5.70
2018,01,18,14,31,5.70
2018,01,18,14,32,5.60
2018,01,18,14,33,5.60
2018,01,18,14,34,5.60
2018,01,18,14,35,5.60
2018,01,18,14,36,5.60
2018,01,18,14,37,5.60
2018,01,18,14,38,5.70
2018,01,18,14,39,5.90
2018,01,18,14,40,6.00
2018,01,18,14,41,6.00
2018,01,18,14,42,6.00
2018,01,18,14,43,6.10
2018,01,18,14,44,6.20
2018,01,18,14,45,6.20
2018,01,18,14,46,6.30
2018,01,18,14,47,6.30
2018,01,18,14,48,6.30
2018,01,18,14,49,6.30
2018,01,18,14,50,6.30
2018,01,18,14,51,6.20
2018,01,18,14,52,6.20
2018,01,18,14,53,6.20
2018,01,18,14,54,6.10
2018,01,18,14,55,6.10
2018,01,18,14,56,6.00
2018,01,18,14,57,6.00
2018,01,18,14,58,5.90
2018,01,18,14,59,5.90
2018,01,18,15,00,5.90
2018,01,18,15,01,5.90
2018,01,18,15,02,5.90
2018,01,18,15,03,5.80
2018,01,18,15,04,5.80
2018,01,18,15,05,5.80
2018,01,18,15,06,5.80
2018,01,18,15,07,5.90
2018,01,18,15,08,5.90
2018,01,18,15,09,5.90
2018,01,18,15,10,6.10
2018,01,18,15,11,6.20
2018,01,18,15,12,6.30
2018,01,18,15,13,6.40
2018,01,18,15,14,6.50
2018,01,18,15,15,6.50
2018,01,18,15,16,6.60
2018,01,18,15,17,6.60
2018,01,18,15,18,6.70
2018,01,18,15,19,6.70
2018,01,18,15,20,6.70
2018,01,18,15,21,6.70
2018,01,18,15,22,6.80
2018,01,18,15,23,6.80
2018,01,18,15,24,6.80
2018,01,18,15,25,6.80
2018,01,18,15,26,6.80
2018,01,18,15,27,6.70
2018,01,18,15,28,6.70
2018,01,18,15,29,6.70
2018,01,18,15,30,6.70
2018,01,18,15,31,6.70
2018,01,18,15,32,6.70
2018,01,18,15,33,6.70
2018,01,18,15,34,6.70
2018,01,18,15,35,6.80
2018,01,18,15,36,6.90
2018,01,18,15,37,6.90
2018,01,18,15,38,6.90
2018,01,18,15,39,6.90
2018,01,18,15,40,7.00
2018,01,18,15,41,7.10
2018,01,18,15,42,7.20
2018,01,18,15,43,7.30
2018,01,18,15,44,7.30
2018,01,18,15,45,7.30
2018,01,18,15,46,7.30
2018,01,18,15,47,7.30
2018,01,18,15,48,7.30
2018,01,18,15,49,7.30
2018,01,18,15,50,7.40
2018,01,18,15,51,7.40
2018,01,18,15,52,7.40
2018,01,18,15,53,7.40
2018,01,18,15,54,7.40
2018,01,18,15,55,7.40
2018,01,18,15,56,7.40
2018,01,18,15,57,7.40
2018,01,18,15,58,7.30
2018,01,18,15,59,7.30
2018,01,18,16,00,7.30
2018,01,18,16,01,7.30
2018,01,18,16,02,7.30
2018,01,18,16,03,7.30
2018,01,18,16,04,7.30
2018,01,18,16,05,7.30
2018,01,18,16,06,7.40
2018,01,18,16,07,7.40
2018,01,18,16,08,7.50
2018,01,18,16,09,7.60
2018,01,18,16,10,7.60
2018,01,18,16,11,7.60
2018,01,18,16,12,7.70
2018,01,18,16,13,7.70
2018,01,18,16,14,7.80
2018,01,18,16,15,7.80
2018,01,18,16,16,7.80
2018,01,18,16,17,7.80
2018,01,18,16,18,7.80
2018,01,18,16,19,7.80
2018,01,18,16,20,7.90
2018,01,18,16,21,7.90
2018,01,18,16,22,7.90
2018,01,18,16,23,7.90
2018,01,18,16,24,7.90
2018,01,18,16,25,7.90
2018,01,18,16,26,7.90
2018,01,18,16,27,7.90
2018,01,18,16,28,8.00
2018,01,18,16,29,8.00
2018,01,18,16,30,8.00
2018,01,18,16,31,8.00
2018,01,18,16,32,8.00
2018,01,18,16,33,8.00
2018,01,18,16,34,7.90
2018,01,18,16,35,7.90
2018,01,18,16,36,7.90
2018,01,18,16,37,7.90
2018,01,18,16,38,7.90
2018,01,18,16,39,7.90
2018,01,18,16,40,7.90
2018,01,18,16,41,7.90
2018,01,18,16,42,7.90
2018,01,18,16,43,7.90
2018,01,18,16,44,7.80
2018,01,18,16,45,7.80
2018,01,18,16,46,7.80
2018,01,18,16,47,7.80
2018,01,18,16,48,7.80
2018,01,18,16,49,7.70
2018,01,18,16,50,7.70
2018,01,18,16,51,7.70
2018,01,18,16,52,7.70
2018,01,18,16,53,7.60
2018,01,18,16,54,7.60
2018,01,18,16,55,7.60
2018,01,18,16,56,7.60
2018,01,18,16,57,7.70
2018,01,18,16,58,7.70
2018,01,18,16,59,7.70
2018,01,18,17,00,7.70
2018,01,18,17,01,7.70
2018,01,18,17,02,7.80
2018,01,18,17,03,7.80
2018,01,18,17,04,7.80
2018,01,18,17,05,7.80
2018,01,18,17,06,7.80
2018,01,18,17,07,7.90
2018,01,18,17,08,7.90
2018,01,18,17,09,7.90
2018,01,18,17,10,7.90
2018,01,18,17,11,7.90
2018,01,18,17,12,7.90
2018,01,18,17,13,7.90
2018,01,18,17,14,7.90
2018,01,18,17,15,7.90
2018,01,18,17,16,8.00
2018,01,18,17,17,8.00
2018,01,18,17,18,8.00
2018,01,18,17,19,8.00
2018,01,18,17,20,8.00
2018,01,18,17,21,8.00
2018,01,18,17,22,7.90
2018,01,18,17,23,7.90
2018,01,18,17,24,7.90
2018,01,18,17,25,7.80
2018,01,18,17,26,7.60
2018,01,18,17,27,7.60
2018,01,18,17,28,7.50
2018,01,18,17,29,7.50
2018,01,18,17,30,7.50
2018,01,18,17,31,7.60
2018,01,18,17,32,7.60
2018,01,18,17,33,7.60
2018,01,18,17,34,7.50
2018,01,18,17,35,7.50
2018,01,18,17,36,7.50
2018,01,18,17,37,7.40
2018,01,18,17,38,7.30
2018,01,18,17,39,7.20
2018,01,18,17,40,7.00
2018,01,18,17,41,7.00
2018,01,18,17,42,7.00
2018,01,18,17,43,7.00
2018,01,18,17,44,7.00
2018,01,18,17,45,7.10
2018,01,18,17,46,7.20
2018,01,18,17,47,7.20
2018,01,18,17,48,7.20
2018,01,18,17,49,7.20
2018,01,18,17,50,7.20
2018,01,18,17,51,7.30
2018,01,18,17,52,7.40
2018,01,18,17,53,7.50
2018,01,18,17,54,7.60
2018,01,18,17,55,7.60
2018,01,18,17,56,7.60
2018,01,18,17,57,7.60
2018,01,18,17,58,7.50
2018,01,18,17,59,7.50
2018,01,18,18,00,7.40
2018,01,18,18,01,7.40
2018,01,18,18,02,7.40
2018,01,18,18,03,7.40
2018,01,18,18,04,7.40
2018,01,18,18,05,7.30
2018,01,18,18,06,7.30
2018,01,18,18,07,7.20
2018,01,18,18,08,7.20
2018,01,18,18,09,7.10
2018,01,18,18,10,7.10
2018,01,18,18,11,7.00
2018,01,18,18,12,7.00
2018,01,18,18,13,7.00
2018,01,18,18,14,6.90
2018,01,18,18,15,7.00
2018,01,18,18,16,7.00
2018,01,18,18,17,7.00
2018,01,18,18,18,7.00
2018,01,18,18,19,7.00
2018,01,18,18,20,7.00
2018,01,18,18,21,7.00
2018,01,18,18,22,7.00
2018,01,18,18,23,7.00
2018,01,18,18,24,7.00
2018,01,18,18,25,7.00
2018,01,18,18,26,7.00
2018,01,18,18,27,7.00
2018,01,18,18,28,6.90
2018,01,18,18,29,6.90
2018,01,18,18,30,7.00
2018,01,18,18,31,7.00
2018,01,18,18,32,7.00
2018,01,18,18,33,7.00
2018,01,18,18,34,7.00
2018,01,18,18,35,7.00
2018,01,18,18,36,7.00
2018,01,18,18,37,6.90
2018,01,18,18,38,6.90
2018,01,18,18,39,6.90
2018,01,18,18,40,6.90
2018,01,18,18,41,6.90
2018,01,18,18,42,6.90
2018,01,18,18,43,6.90
2018,01,18,18,44,6.90
2018,01,18,18,45,6.90
2018,01,18,18,46,7.00
2018,01,18,18,47,6.90
2018,01,18,18,48,6.90
2018,01,18,18,49,6.80
2018,01,18,18,50,6.80
2018,01,18,18,51,6.80
2018,01,18,18,52,6.80
2018,01,18,18,53,6.80
2018,01,18,18,54,6.90
2018,01,18,18,55,6.90
2018,01,18,18,56,6.90
2018,01,18,18,57,7.00
2018,01,18,18,58,7.00
2018,01,18,18,59,7.10
2018,01,18,19,00,7.10
2018,01,18,19,01,7.10
2018,01,18,19,02,7.20
2018,01,18,19,03,7.20
2018,01,18,19,04,7.20
2018,01,18,19,05,7.20
2018,01,18,19,06,7.20
2018,01,18,19,07,7.10
2018,01,18,19,08,7.00
2018,01,18,19,09,7.00
2018,01,18,19,10,6.90
2018,01,18,19,11,6.80
2018,01,18,19,12,6.70
2018,01,18,19,13,6.70
2018,01,18,19,14,6.70
2018,01,18,19,15,6.80
2018,01,18,19,16,6.80
2018,01,18,19,17,6.80
2018,01,18,19,18,6.80
2018,01,18,19,19,6.70
2018,01,18,19,20,6.70
2018,01,18,19,21,6.70
2018,01,18,19,22,6.60
2018,01,18,19,23,6.60
2018,01,18,19,24,6.60
2018,01,18,19,25,6.60
2018,01,18,19,26,6.50
2018,01,18,19,27,6.50
2018,01,18,19,28,6.50
2018,01,18,19,29,6.50
2018,01,18,19,30,6.50
2018,01,18,19,31,6.40
2018,01,18,19,32,6.40
2018,01,18,19,33,6.40
2018,01,18,19,34,6.30
2018,01,18,19,35,6.30
2018,01,18,19,36,6.30
2018,01,18,19,37,6.40
2018,01,18,19,38,6.40
2018,01,18,19,39,6.50
2018,01,18,19,40,6.50
2018,01,18,19,41,6.50
2018,01,18,19,42,6.50
2018,01,18,19,43,6.50
2018,01,18,19,44,6.50
2018,01,18,19,45,6.40
2018,01,18,19,46,6.40
2018,01,18,19,47,6.40
2018,01,18,19,48,6.50
2018,01,18,19,49,6.50
2018,01,18,19,50,6.40
2018,01,18,19,51,6.40
2018,01,18,19,52,6.40
2018,01,18,19,53,6.40
2018,01,18,19,54,6.30
2018,01,18,19,55,6.30
2018,01,18,19,56,6.30
2018,01,18,19,57,6.30
2018,01,18,19,58,6.30
2018,01,18,19,59,6.30
2018,01,18,20,00,6.30
2018,01,18,20,01,6.30
2018,01,18,20,02,6.30
2018,01,18,20,03,6.30
2018,01,18,20,04,6.30
2018,01,18,20,05,6.30
2018,01,18,20,06,6.30
2018,01,18,20,07,6.30
2018,01,18,20,08,6.40
2018,01,18,20,09,6.40
2018,01,18,20,10,6.40
2018,01,18,20,11,6.50
2018,01,18,20,12,6.60
2018,01,18,20,13,6.70
2018,01,18,20,14,6.90
2018,01,18,20,15,7.00
2018,01,18,20,16,7.10
2018,01,18,20,17,7.20
2018,01,18,20,18,7.20
2018,01,18,20,19,7.20
2018,01,18,20,20,7.20
2018,01,18,20,21,7.20
2018,01,18,20,22,7.10
2018,01,18,20,23,7.10
2018,01,18,20,24,7.10
2018,01,18,20,25,7.10
2018,01,18,20,26,7.00
2018,01,18,20,27,7.00
2018,01,18,20,28,6.90
2018,01,18,20,29,6.90
2018,01,18,20,30,6.90
2018,01,18,20,31,6.90
2018,01,18,20,32,6.80
2018,01,18,20,33,6.80
2018,01,18,20,34,6.70
2018,01,18,20,35,6.70
2018,01,18,20,36,6.60
2018,01,18,20,37,6.60
2018,01,18,20,38,6.60
2018,01,18,20,39,6.60
2018,01,18,20,40,6.60
2018,01,18,20,41,6.60
2018,01,18,20,42,6.50
2018,01,18,20,43,6.50
2018,01,18,20,44,6.40
2018,01,18,20,45,6.40
2018,01,18,20,46,6.40
2018,01,18,20,47,6.40
2018,01,18,20,48,6.40
2018,01,18,20,49,6.40
2018,01,18,20,50,6.40
2018,01,18,20,51,6.30
2018,01,18,20,52,6.30
2018,01,18,20,53,6.30
2018,01,18,20,54,6.30
2018,01,18,20,55,6.30
2018,01,18,20,56,6.40
2018,01,18,20,57,6.40
2018,01,18,20,58,6.40
2018,01,18,20,59,6.40
2018,01,18,21,00,6.40
2018,01,18,21,01,6.40
2018,01,18,21,02,6.40
2018,01,18,21,03,6.40
2018,01,18,21,04,6.30
2018,01,18,21,05,6.30
2018,01,18,21,06,6.30
2018,01,18,21,07,6.30
2018,01,18,21,08,6.20
2018,01,18,21,09,6.20
2018,01,18,21,10,6.20
2018,01,18,21,11,6.20
2018,01,18,21,12,6.20
2018,01,18,21,13,6.20
2018,01,18,21,14,6.20
2018,01,18,21,15,6.20
2018,01,18,21,16,6.20
2018,01,18,21,17,6.20
2018,01,18,21,18,6.30
2018,01,18,21,19,6.40
2018,01,18,21,20,6.40
2018,01,18,21,21,6.50
2018,01,18,21,22,6.50
2018,01,18,21,23,6.60
2018,01,18,21,24,6.70
2018,01,18,21,25,6.70
2018,01,18,21,26,6.70
2018,01,18,21,27,6.70
2018,01,18,21,28,6.70
2018,01,18,21,29,6.70
2018,01,18,21,30,6.60
2018,01,18,21,31,6.60
2018,01,18,21,32,6.50
2018,01,18,21,33,6.50
2018,01,18,21,34,6.50
2018,01,18,21,35,6.40
2018,01,18,21,36,6.40
2018,01,18,21,37,6.40
2018,01,18,21,38,6.40
2018,01,18,21,39,6.30
2018,01,18,21,40,6.30
2018,01,18,21,41,6.20
2018,01,18,21,42,6.20
2018,01,18,21,43,6.20
2018,01,18,21,44,6.20
2018,01,18,21,45,6.20
2018,01,18,21,46,6.20
2018,01,18,21,47,6.20
2018,01,18,21,48,6.20
2018,01,18,21,49,6.20
2018,01,18,21,50,6.20
2018,01,18,21,51,6.20
2018,01,18,21,52,6.20
2018,01,18,21,53,6.20
2018,01,18,21,54,6.20
2018,01,18,21,55,6.20
2018,01,18,21,56,6.20
2018,01,18,21,57,6.10
2018,01,18,21,58,6.10
2018,01,18,21,59,6.10
2018,01,18,22,00,6.10
2018,01,18,22,01,6.10
2018,01,18,22,02,6.10
2018,01,18,22,03,6.10
2018,01,18,22,04,6.10
2018,01,18,22,05,6.10
2018,01,18,22,06,6.20
2018,01,18,22,07,6.10
2018,01,18,22,08,6.10
2018,01,18,22,09,6.10
2018,01,18,22,10,6.10
2018,01,18,22,11,6.10
2018,01,18,22,12,6.20
2018,01,18,22,13,6.20
2018,01,18,22,14,6.20
2018,01,18,22,15,6.30
2018,01,18,22,16,6.30
2018,01,18,22,17,6.30
2018,01,18,22,18,6.30
2018,01,18,22,19,6.40
2018,01,18,22,20,6.40
2018,01,18,22,21,6.50
2018,01,18,22,22,6.40
2018,01,18,22,23,6.40
2018,01,18,22,24,6.30
2018,01,18,22,25,6.30
2018,01,18,22,26,6.30
2018,01,18,22,27,6.20
2018,01,18,22,28,6.20
2018,01,18,22,29,6.10
2018,01,18,22,30,6.10
2018,01,18,22,31,6.00
2018,01,18,22,32,6.00
2018,01,18,22,33,6.00
2018,01,18,22,34,5.90
2018,01,18,22,35,5.90
2018,01,18,22,36,5.90
2018,01,18,22,37,5.90
2018,01,18,22,38,6.00
2018,01,18,22,39,6.00
2018,01,18,22,40,6.10
2018,01,18,22,41,6.10
2018,01,18,22,42,6.10
2018,01,18,22,43,6.10
2018,01,18,22,44,6.10
2018,01,18,22,45,6.10
2018,01,18,22,46,6.00
2018,01,18,22,47,6.00
2018,01,18,22,48,6.00
2018,01,18,22,49,5.90
2018,01,18,22,50,5.90
2018,01,18,22,51,5.90
2018,01,18,22,52,5.90
2018,01,18,22,53,5.90
2018,01,18,22,54,5.80
2018,01,18,22,55,5.80
2018,01,18,22,56,5.80
2018,01,18,22,57,5.80
2018,01,18,22,58,5.80
2018,01,18,22,59,5.80
2018,01,18,23,00,5.80
2018,01,18,23,01,5.80
2018,01,18,23,02,5.80
2018,01,18,23,03,5.80
2018,01,18,23,04,5.80
2018,01,18,23,05,5.70
2018,01,18,23,06,5.80
2018,01,18,23,07,5.80
2018,01,18,23,08,5.80
2018,01,18,23,09,5.80
2018,01,18,23,10,5.80
2018,01,18,23,11,5.80
2018,01,18,23,12,5.80
2018,01,18,23,13,5.80
2018,01,18,23,14,5.80
2018,01,18,23,15,5.80
2018,01,18,23,16,5.80
2018,01,18,23,17,5.80
2018,01,18,23,18,5.80
2018,01,18,23,19,5.80
2018,01,18,23,20,5.80
2018,01,18,23,21,5.90
2018,01,18,23,22,5.80
2018,01,18,23,23,5.90
2018,01,18,23,24,5.90
2018,01,18,23,25,5.90
2018,01,18,23,26,5.90